Regional Weather Roundup
Issued by NWS Little Rock, AR

Home | Current Version | Previous Version | Text Only | Print | Product List | Glossary Off
Versions: 1 2 3 4 5 6 7 8 9 10 11 12 13 14 15 16 17 18 19 20 21 22 23 24 25 26 27

000
ASUS44 KLZK 240805
RWRLZK

WEATHER ROUNDUP FOR ARKANSAS
NATIONAL WEATHER SERVICE LITTLE ROCK AR
300 AM CDT WED AUG 24 2016

NOTE: "FAIR" INDICATES FEW OR NO CLOUDS BELOW 12,000 FEET WITH NO
SIGNIFICANT WEATHER AND/OR OBSTRUCTIONS TO VISIBILITY.

ARZ001-003-010-029-240900-
NORTHWEST ARKANSAS

CITY           SKY/WX    TMP DP  RH WIND       PRES   REMARKS
FAYETTEVILLE   PTCLDY    75  71  87 S14       30.08F
FORT SMITH     CLEAR     77  71  82 SE3       30.07S
HARRISON       CLEAR     76  71  85 S9        30.11S
BENTONVILLE    PTCLDY    77  66  69 S10G17    30.07S
ROGERS         PTCLDY    77  71  82 S15G22    30.08F
SILOAM SPGS    PTCLDY    77  64  65 S17G23    30.07F
HIGHFILL       PTCLDY    78  72  81 S14G21    30.07F
$$

ARZ004-005-016-240900-
NORTH CENTRAL ARKANSAS

CITY           SKY/WX    TMP DP  RH WIND       PRES   REMARKS
BATESVILLE     CLOUDY    77  73  88 SE3       30.11F
FLIPPIN        CLEAR     73  68  83 CALM      30.07F
MTN HOME       PTCLDY    73  72  96 S3        30.10S
$$

ARZ040-041-240900-
WEST CENTRAL ARKANSAS

CITY           SKY/WX    TMP DP  RH WIND       PRES   REMARKS
MENA           CLEAR     81  77  89 SW9G18    30.13S HX  88
MOUNT IDA      PTCLDY    80  74  81 CALM      30.10S HX  85
$$

ARZ009-017-025-026-028-240900-
NORTHEAST ARKANSAS

CITY           SKY/WX    TMP DP  RH WIND       PRES   REMARKS
CORNING          N/A     75  75 100 S7        30.10F
JONESBORO      CLEAR     75  72  90 SW5       30.11F
NEWPORT        CLEAR     74  73  97 S7        30.11S
WALNUT RIDGE   CLEAR     73  72  94 S5        30.10S
BLYTHEVILLE    CLEAR     75  73  93 S5        30.12S
$$

ARZ022-023-033-042-044-240900-
CENTRAL ARKANSAS

CITY           SKY/WX    TMP DP  RH WIND       PRES   REMARKS
LITTLE ROCK    CLEAR     79  74  84 S5        30.11S
N LITTLE ROCK    N/A     78  74  86 SW6       30.08S
JACKSONVILLE   CLEAR     79  76  91 S5        30.11R
SEARCY         CLEAR     76  75  97 CALM      30.12S
HOT SPRINGS    CLEAR     80  74  81 S6        30.12S HX  85
RUSSELLVILLE   CLOUDY    76  74  93 CALM      30.10S
$$

ARZ036-240900-
EAST ARKANSAS

CITY           SKY/WX    TMP DP  RH WIND       PRES   REMARKS
WEST MEMPHIS   CLEAR     76  73  91 SE7       30.11F
$$

ARZ050-053-066-070-073-240900-
SOUTHWEST ARKANSAS

CITY           SKY/WX    TMP DP  RH WIND       PRES   REMARKS
ARKADELPHIA    FAIR      76  75  97 N3        30.11S
CAMDEN         CLEAR     75  73  94 S3        30.12S
TEXARKANA      CLEAR     78  76  93 S9        30.11S
EL DORADO      CLEAR     77  76  96 S3        30.13F
DE QUEEN       FOG       73  73 100 CALM      30.09S VSB 1
$$

ARZ056-057-069-240900-
SOUTHEAST ARKANSAS

CITY           SKY/WX    TMP DP  RH WIND       PRES   REMARKS
PINE BLUFF     CLEAR     76  74  93 SW3       30.12S
STUTTGART      CLEAR     79  72  78 S8        30.11S
MONTICELLO     CLEAR     80  75  84 S7        30.13S HX  85

$$






USA.gov is the U.S. government's official web portal to all federal, state and local government web resources and services.